NEW PRODUCTS

01-13-20 10:50:53

ITEM DESCRIPTION U/M EACH UPC DATE
 234104  VELO CITRUS POUCH 2MG 15CT   5-15CT/BX  4920501769  12-16-19
 234106  VELO MINT POUCH 2MG 15CT   5-15CT/BX  4920501772  12-16-19
 300414  ZEN MTH TUBES 100MM   50-200CT/CS  1616517432  12-16-19
 356948  TEA CHAI CONC LIQIUD 64Z W/PUM  4/CS  4579605283  12-16-19
 911613  NOBAKE CKYS I/W CHOCOLATE 4.3Z  12/BX  5177900500  12-16-19
 911615  NOBAKE CKYS I/W PEANUT BTR 4.3  12/BX  5177900501  12-16-19
 513530  SKINNY POP BUTTER 4.4Z   12/CS  1692502066  12-17-19
 513532  SKINNY POP ORIGINAL 4.4Z   12/CS  5025100400  12-17-19
 513534  SKINNY POP SWT/SLTY KETTLE 5.3  12/CS  5025100420  12-17-19
 513536  SKINNY POP WHITE CHEDDAR 4.4Z   12/CS  5025100417  12-17-19
 616178  SKINNY POP ORIGINAL 1Z   12/CS  5025100408  12-17-19
 616180  SKINNY POP SWT/SLTY KETTLE 1.9  12/CS  1692502116  12-17-19
 616182  SKINNY POP WHITE CHEDDAR 1Z   12/CS  5025100443  12-17-19
 631292  PAQUI CHILE LIMON CHIPS 2Z   6/CS  1000265001  12-17-19
 631294  PAQUI ZESTY SALSA VERDE CHIPS   6/CS  9176000250  12-17-19
 631296  PAQUI HAUNTED GHST PPR CHIPS 2  6/CS  9176000256  12-17-19
 631300  PIRATE'S BOOTY WHT CHDR PUFFS   12/CS  1566560104  12-17-19
 729149  MR CLEAN SUMMER CITRUS 28Z   9/CS  3700077130  12-17-19
 305846  GS WAXED DENTAL FLOSS 100 YARD  1/EA  4603600441  12-19-19
 306824  GS PAIN RELIEF PM XS GEL 50CT   1/EA  0113083771  12-19-19
 306826  GS PAIN RELIEF XS 500MG TAB 24  1/EA  0113048462  12-19-19
 306828  GS IBUPROFEN 200MG COATED TABL  1/EA  7003013423  12-19-19
 306830  GS PAIN RELIEF PM XS 500MG CAP  1/EA  7003013184  12-19-19
 306832  GS ANTI DIARRHEAL CAP 6CT LOPE  1/EA  7003013217  12-19-19
 306834  GS IBUPROFEN 200MG CAPLETS 24C  1/EA  7003013512  12-19-19
 306836  GS IBUPROFEN 200MG BROWN 24CT   1/EA  7003013207  12-19-19
 307449  GS 70% ALCOHOL 16Z   1/EA  4603600172  12-19-19
 308748  GS NIGHT CLD\FLU MULTI SYMP 8Z  1/EA  0113045934  12-19-19
 308756  GS ALL DAY ALLERGY CETIRIZINE   1/EA  7003014845  12-19-19
 308989  GS NASAL SPRAY 1Z   1/EA  7003014607  12-19-19
 309834  GS EYE DROPS ADVANCED RELIEF 0  1/EA  8041000019  12-19-19
 309848  GS EYE DROPS ORIG 0.5Z   1/EA  8041000015  12-19-19
 311660  GS TRIPLE ANTIBIOTIC MAX STREN  1/EA  0113067964  12-19-19
 311662  GS PETROLEUM JELLY TUB 3.75Z   1/EA  4603600689  12-19-19
 311664  GS 3% PEROXIDE 16Z   1/EA  4603600156  12-19-19
 311666  GS DIGITAL THERMOTER 30 SEC RI  1/EA  4603600767  12-19-19
 312811  GS HAND SANITIZER 8Z   1/EA  4603600068  12-19-19
 313781  GS EMERY BOARDS 10CT   1/EA  4603600392  12-19-19
 313783  GS NAIL CLIPPER EZ GRIP 1CT   1/EA  4603600379  12-19-19
 313785  GS SLANT TWEEZERS BLK SS 1CT   1/EA  4603600374  12-19-19
 333401  PRMGRD DIESEL EXH FLUID 2.5 GA  1/CS  4053012838  12-19-19
 334382  PRMGRD 10W30 OIL QT   12/CS  4053011607  12-20-19
 334384  PRMGRD 10W40 OIL QT   12/CS  4053011608  12-20-19
 334394  PRMGRD HD30W OIL QT   12/CS  4053011619  12-20-19
 444651  JOLLY RANCHER ASST GUMMIES 5Z   12/CS  1070085836  12-20-19
 444653  JOLLY RANCHER SOUR GUMMIES 5Z   12/CS  1070085835  12-20-19
 445002  HERSH WHT CRM W/ALMONDS KING   18/BX  3400022104  12-20-19
 445004  KIT KAT DUOS DK CHOC MINT KING  24/BX  3400031826  12-20-19
 446582  KIT KAT DUOS DRK CHOC MINT STD  24/BX  3400031828  12-20-19
 446584  HERSHEY WHITE CREME W/ALMONDS   36/BX  3400024133  12-20-19
 426334  NC LAFFY TAFFY ROPE BANANA   24/BX  7920053431  12-23-19
 426336  NC LAFFY TAFFY STRAWBERRY   24/BX  7920063163  12-23-19
 426338  NC LAFFY TAFFY BLUE RASP   24/BX  7920072293  12-23-19
 426340  NC LAFFY TAFFY SOUR APPLE   24/BX  7920072047  12-23-19
 431297  NC 100 GRAND SINGLE 1.5Z   36/BX  9990069423  12-23-19
 444701  WILEY WALLABY LICORICE HUCKLEB  12/CS  2222420073  12-23-19
 444705  WILEY WALLABY GRN APL LICORICE  12/CS  2222420072  12-23-19
 444723  WILEY WALLABY RED LICORICE 7Z   12/CS  2222420070  12-23-19
 455101  NC 100 GRAND SHARE 2.8Z   24/BX  9990099324  12-23-19
 529102  KIND PNT BTR DRK CHOC 1.4Z   12/BX  0265217056  12-23-19
 701570  WET ONES FRESH ANTIBACTERIAL 2  1/EA  7682804843  12-23-19
 810104  TOM & JERRY MIX 16Z   1/EA  4821124685  12-23-19
 811056  GRASSLAND BUTTER 1# QUARTERED   1/EA  7917600010  12-24-19
 811891  C FARM STICK COLBY 8Z   1/EA  7592530102  12-24-19
 811900  C FARM STICK CHS MRBL JK 1Z   24/BX  7592530168  12-24-19
 335240  PRMGRD GEAR LUBE 80W90 QT   6/CS  4053011686  12-26-19
 820284  KEMPS SEL SKIM PLST MILK QT   1/EA  4148302993  12-26-19
 820286  KEMPS SEL 2% PLST MILK QT   1/EA  4148302991  12-26-19
 820407  KEMPS STRAWBERRY MILK 16Z   1/EA  4148302987  12-26-19
 200756  VUSE ALTO PWR UNIT ONLY ROS/GL  5/BX  4920501808  12-30-19
 200758  VUSE ALTO PWR UNIT ONLY SILVER  5/BX  4920501811  12-30-19
 200760  VUSE ALTO POD GOLDEN TOB 18%   5/BX  4920501976  12-30-19
 200762  VUSE ALTO POD MENTHOL 1.8%   5/BX  4920501967  12-30-19
 200764  VUSE ALTO POD RICH TOB 1.8%   5/BX  4920501970  12-30-19
 200766  VUSE ALTO POD MENTHOL 2.4%   5/BX  4920501993  12-30-19
 304292  HF FOOTWARMER INSOLE 7 HR   30/BX  3713719582  01-02-20
 304296  HF LARGE WARMER 20 HR   30/BX  3713701941  01-02-20
 305410  EDGE GEL SENSITIVE SHAVE 2.75Z  12/CS  4105800519  01-02-20
 517134  SNYDER RANCH PIECES 10Z PP$3.8  12/CS  7797508820  01-02-20
 529100  KIND DRK CHOC/SEA SALT 1.4Z   12/BX  0265217651  01-02-20
 552760  BBOY T/S CHOC ICD CAKE DONUT 6  5/CS  1020540650  01-02-20
 552762  BBOY T/S CHOC ICD CRM LNG JOHN  5/CS  1020540242  01-02-20
 552764  BBOY T/S CHOC ICD RING DONUT 6  5/CS  1020540012  01-02-20
 552766  BBOY T/S GLZD APPLE FRITTER 6C  5/CS  1020540411  01-02-20
 552768  BBOY T/S GLZD CAKE DONUTS 6CT   5/CS  1020540101  01-02-20
 552770  BBOY T/S GLZD CINN TWST DONUT   5/CS  1020540331  01-02-20
 552772  BBOY T/S GLZD OLD FASH CKE DON  5/CS  1020540102  01-02-20
 552776  BBOY T/S ICD CHOC/BAV MAGIC RI  5/CS  1020540147  01-02-20
 552778  BBOY T/S ICD RASP MAGIC RING 6  5/CS  1020540146  01-02-20
 552780  BBOY T/S ICD STRW CHS MAGIC RI  5/CS  1020540149  01-02-20
 552782  BBOY T/S MAPLE ICED LNG JOHN 6  5/CS  1020540211  01-02-20
 912742  TYSON CHKN NUGGETS 13.25Z   8/CS  2370000631  01-02-20
 660480  **RED VINE TOMATOES   11#/CS    01-06-20
 314198  STAYFREE ULTRA THIN OVERNIGHT   1/EA  7830007046  01-07-20
 460158  SNICKERS CARAMEL EASTER EGG SH  24/BX  4000049920  01-07-20
 460192  STARBURST JELLY BEAN SHARE   15/BX  2200002121  01-07-20
 557636  OM CHEESEBURGER LINKS 10#   10#/CS  4470000246  01-07-20
 920206  DM BURR WHL 9 YDS BRKFST 7 OZ   12/CS  2708618450  01-07-20
 301590  JARU CAP GUN HOLDS CAP RINGS   1/EA  7565600900  01-09-20
 728052  COMET CLEANSER W/BLEACH 14Z   24/CS  1000344024  01-09-20
 801640  WB C 1.75Z COMBO CHDR N STK   18/BX  1360801195  01-09-20
 430840  KIT KAT BIG KAT 1.5Z   24/BX  3400024524  01-10-20
 534214  RIP IT POOTIN POWER 16Z   24/CS  4220000005  01-10-20